Wind_Speed
16 15 15 15 14 13 13 13 12 12 12 11 11 11 12 13 13 13 14 14 14 14 13 13 12 12 11 10 10 9 8 8 9 10 13 13 15 18 19 19 19 18 17 16
18 18 17 17 16 14 14 13 13 14 13 12 11 12 13 14 14 14 14 14 14 13 12 12 12 12 11 10 9 9 8 7 7 9 10 12 13 15 17 18 18 18 17 17
21 20 19 18 17 16 15 14 15 15 13 13 12 12 13 14 14 14 13 13 13 13 12 12 12 11 11 10 10 9 7 7 7 8 9 11 12 14 15 16 17 18 18 18
23 21 20 19 18 17 17 16 16 15 13 13 13 10 13 14 14 14 13 12 12 12 12 12 12 11 11 10 10 9 8 7 7 7 8 10 12 13 14 15 17 17 18 18
23 23 21 20 20 19 18 18 16 15 14 14 14 11 11 14 12 12 12 11 10 10 11 11 11 11 11 10 10 9 9 8 7 7 8 10 11 13 14 15 16 17 18 18
25 23 22 21 21 20 19 17 16 15 14 14 13 12 10 12 12 11 11 10 10 10 10 10 10 10 10 9 8 8 8 7 7 7 8 10 11 12 13 14 16 17 18 19
24 24 23 22 21 20 18 16 15 14 13 13 14 12 12 12 12 11 11 10 10 10 10 9 9 10 9 9 8 9 8 7 7 7 8 10 11 11 12 14 15 16 18 19
23 23 22 21 21 20 18 17 15 13 12 12 15 12 12 12 11 10 9 9 9 9 8 8 9 9 8 8 8 8 7 7 7 8 8 9 11 12 13 14 15 16 17 19
23 23 23 22 21 20 20 18 17 16 15 13 13 13 11 11 10 9 8 8 8 8 8 8 8 7 7 8 8 8 7 7 7 8 8 10 11 12 13 15 15 16 16 18
23 23 23 22 21 21 20 20 19 17 14 12 12 11 10 10 9 8 8 8 8 8 8 8 8 8 8 8 8 8 8 8 7 8 9 9 11 12 13 14 15 16 16 17
23 22 23 22 22 21 21 20 19 17 16 12 10 11 11 10 9 9 9 9 9 9 9 8 9 9 9 9 8 8 7 7 7 8 9 9 10 11 13 14 14 15 16 18
22 22 22 22 22 21 21 20 20 18 17 15 12 12 13 10 9 10 10 10 10 10 10 9 9 10 10 10 9 8 8 8 8 9 9 10 10 11 12 13 14 15 15 16
24 23 21 20 22 22 21 21 20 19 18 16 13 13 15 12 11 11 11 11 11 10 11 11 11 11 10 9 9 8 8 8 9 10 10 11 12 12 13 14 15 16 16 16
26 24 22 18 18 20 20 20 20 19 17 16 15 15 17 14 14 13 13 13 12 11 11 11 12 11 10 10 10 10 10 10 11 11 12 12 12 12 12 13 14 15 15 16
28 27 25 24 24 22 20 20 21 21 19 17 16 17 18 17 16 16 15 14 14 13 12 12 12 12 12 12 12 11 12 12 12 11 11 12 12 13 14 14 15 15 15 16
30 29 27 26 26 24 23 23 23 22 21 20 19 20 20 20 19 17 17 16 16 16 15 15 14 14 14 14 13 13 14 14 14 13 12 12 12 13 14 15 15 16 16 16
32 30 29 26 26 26 26 25 24 24 23 22 21 22 22 21 20 20 19 19 18 18 18 18 17 16 17 16 15 15 15 15 15 15 14 14 14 14 15 15 16 16 16 17
33 31 29 27 28 28 27 27 25 25 25 24 24 23 23 23 22 21 20 20 20 20 20 19 19 19 19 18 18 18 17 16 17 17 17 17 17 16 16 17 17 17 17 17
35 33 31 29 28 28 30 29 26 26 27 26 25 25 24 24 23 22 21 21 21 21 21 21 21 21 21 21 20 19 19 19 19 19 18 18 18 19 18 19 19 19 19 19
35 34 33 33 30 28 30 30 27 27 29 27 26 26 26 25 25 24 23 22 22 22 22 22 22 22 22 22 22 22 22 22 22 22 21 20 21 21 21 21 21 21 22 22
35 35 34 34 32 31 34 32 28 30 30 28 27 27 27 27 26 26 24 24 24 23 23 24 24 24 24 24 24 25 24 24 24 23 23 22 22 23 23 22 23 23 23 23
35 35 35 34 33 33 36 33 32 31 30 30 29 29 28 28 27 27 26 26 25 24 25 25 25 25 26 26 26 26 26 26 26 25 24 24 24 24 24 24 24 24 25 25
36 36 35 36 36 36 35 33 32 32 31 31 30 30 29 29 29 28 27 27 26 25 25 25 25 26 26 27 27 27 27 27 26 26 26 26 27 26 26 27 27 27 27 27
35 35 35 35 35 34 33 32 32 31 31 31 30 30 30 30 29 29 28 27 27 26 25 25 26 26 26 26 26 26 26 26 26 27 27 27 27 27 27 27 27 28 27 27
33 33 33 33 33 32 32 31 31 30 30 30 30 30 29 29 28 27 27 26 27 27 27 27 27 26 26 26 26 26 26 26 27 27 27 27 27 27 27 27 26 26 27 27
33 32 32 32 31 31 30 29 29 29 29 29 29 29 28 28 27 26 26 26 27 27 27 27 27 27 27 26 26 26 25 25 25 25 25 25 25 25 26 26 25 25 25 26
Wind_Direction
267 267 267 270 274 277 278 277 279 286 295 304 307 305 302 303 298 298 298 297 299 303 311 317 322 326 327 327 324 319 303 286 268 247 237 233 229 223 221 220 223 224 224 221
264 264 265 268 272 275 276 274 274 280 291 300 305 303 301 301 297 295 296 295 296 297 305 313 318 322 324 321 321 319 310 298 268 253 244 235 228 222 221 223 222 223 223 222
261 262 264 266 269 271 272 270 270 277 290 297 304 307 301 299 297 296 295 294 294 296 300 307 311 315 318 315 315 315 307 301 279 257 245 231 225 223 223 220 223 225 225 224
260 262 262 263 266 267 267 267 270 277 283 287 298 295 297 300 298 297 294 293 295 298 298 303 309 312 313 311 311 309 300 293 280 261 241 230 227 227 226 224 224 227 228 225
259 259 260 261 262 263 264 266 269 274 278 285 293 294 292 298 299 297 296 296 299 298 299 303 307 308 312 308 305 302 298 287 275 250 236 228 233 234 229 228 229 231 232 230
258 258 259 260 260 261 263 266 269 272 275 280 284 288 290 292 295 295 294 294 297 297 301 303 305 307 311 313 307 302 295 283 275 250 238 233 238 238 233 231 230 231 232 231
256 258 259 259 259 259 259 260 262 266 270 274 278 285 284 287 292 292 292 290 291 294 296 297 300 305 311 316 313 302 294 284 276 257 245 241 238 237 233 231 232 233 233 234
254 256 257 257 256 256 253 251 247 247 257 266 280 283 285 290 292 292 290 289 286 289 291 294 299 301 306 312 313 304 292 285 275 267 256 249 238 236 236 235 236 235 235 236
250 254 255 254 254 252 251 249 247 248 251 255 268 280 287 287 292 291 286 287 285 284 286 295 301 302 305 309 308 304 293 286 275 271 265 256 248 242 241 241 241 239 239 238
246 249 253 253 253 252 249 247 245 246 247 254 267 278 278 285 290 288 285 284 280 278 283 292 295 295 300 304 305 300 289 284 276 272 270 265 256 248 246 244 241 240 240 238
243 245 251 254 254 253 249 247 247 245 242 242 256 266 270 279 283 284 286 286 283 279 283 288 293 294 298 303 304 300 291 281 278 276 272 268 261 255 250 245 243 241 241 238
238 240 244 250 251 250 248 246 245 242 246 245 242 258 270 276 277 278 282 283 281 276 277 281 291 296 296 298 296 295 287 283 279 281 276 269 266 262 253 247 241 244 244 240
235 236 239 244 249 249 248 246 244 241 241 245 246 258 269 273 272 275 278 280 279 276 277 281 283 289 293 298 295 289 286 286 289 288 282 273 269 263 251 247 244 244 245 242
234 234 230 228 240 246 245 243 241 240 242 248 249 252 265 269 272 276 275 275 274 274 276 279 278 281 287 288 291 288 287 290 291 288 284 276 270 263 254 250 249 250 250 250
233 235 232 228 231 238 240 239 240 241 238 243 254 257 261 269 273 274 274 273 272 273 274 276 274 274 278 282 285 286 288 291 291 288 286 282 276 266 259 256 256 257 257 257
232 234 234 234 236 237 238 237 240 242 243 247 251 258 263 269 272 273 273 272 273 272 273 275 277 274 274 277 279 283 287 287 285 281 279 279 278 273 267 263 263 263 262 259
233 234 234 235 237 238 240 239 239 243 247 251 256 261 267 270 272 272 272 272 273 272 270 273 273 275 273 272 274 277 283 282 280 279 276 275 272 272 268 264 267 265 262 261
233 234 234 234 236 238 239 239 240 243 247 252 256 262 267 269 270 270 270 271 272 271 271 272 271 271 269 269 271 274 277 278 277 277 276 274 270 269 268 265 265 265 265 263
231 233 234 235 238 241 242 242 242 245 249 252 257 261 266 268 270 268 269 270 270 270 269 270 268 267 266 265 268 272 275 275 275 274 273 272 272 269 267 267 266 264 264 264
230 232 234 237 235 238 246 245 244 247 251 252 256 261 264 267 268 268 268 268 268 268 267 267 266 264 264 263 266 270 273 274 274 274 271 269 271 272 269 267 265 264 264 266
230 232 234 238 239 240 244 247 246 247 251 253 256 260 262 264 265 265 265 266 267 267 266 266 265 264 264 263 265 268 270 273 274 271 269 268 271 272 269 269 268 267 267 267
230 233 235 237 239 241 246 248 248 250 253 255 257 259 261 262 262 262 263 266 267 267 266 265 264 264 263 263 265 267 268 270 272 270 268 268 269 271 270 271 270 269 269 270
231 232 235 237 239 242 246 248 250 251 252 253 255 257 259 260 260 261 262 264 265 266 267 265 263 263 264 263 264 266 267 269 268 268 268 268 270 272 271 271 271 271 272 273
233 234 237 239 242 245 247 249 250 250 250 251 253 254 256 257 257 259 261 262 262 264 265 264 263 264 264 265 265 265 266 267 267 267 267 267 270 272 272 269 269 268 270 272
232 233 236 239 242 245 247 248 248 249 249 250 252 253 254 255 255 257 259 260 261 262 264 264 263 263 264 265 266 266 266 266 266 266 267 268 270 270 270 269 268 267 269 273
232 234 236 238 240 243 244 245 246 247 248 249 250 252 253 253 253 256 259 260 260 261 263 264 263 262 263 263 264 266 266 266 267 267 268 270 270 268 269 269 268 270 274 275
Height
5886 5888 5888 5888 5889 5890 5890 5890 5890 5890 5889 5889 5889 5888 5887 5886 5885 5884 5883 5881 5879 5877 5875 5873 5870 5868 5866 5864 5863 5861 5860 5860 5860 5860 5862 5863 5865 5867 5869 5872 5875 5877 5879 5881
5883 5884 5884 5884 5885 5886 5886 5887 5887 5886 5886 5887 5887 5886 5885 5883 5882 5881 5880 5878 5876 5875 5873 5871 5869 5866 5864 5863 5861 5860 5859 5858 5858 5858 5859 5861 5863 5864 5867 5869 5872 5875 5877 5878
5878 5880 5880 5881 5882 5882 5883 5883 5883 5883 5884 5884 5884 5884 5882 5881 5879 5878 5877 5875 5873 5872 5870 5869 5867 5865 5863 5861 5860 5858 5857 5856 5856 5856 5857 5859 5861 5863 5865 5867 5870 5872 5874 5876
5873 5874 5875 5876 5877 5878 5879 5879 5880 5880 5881 5882 5882 5883 5881 5878 5877 5875 5874 5872 5871 5869 5868 5866 5865 5863 5861 5859 5858 5856 5855 5854 5854 5854 5855 5856 5858 5860 5862 5864 5867 5869 5871 5873
5868 5869 5870 5872 5873 5874 5875 5875 5876 5877 5878 5879 5878 5879 5880 5875 5874 5872 5871 5870 5868 5867 5865 5864 5862 5860 5859 5857 5856 5855 5853 5852 5851 5851 5853 5854 5856 5858 5860 5862 5864 5866 5868 5870
5862 5864 5865 5867 5868 5869 5871 5872 5873 5874 5875 5876 5876 5876 5876 5874 5871 5870 5868 5867 5866 5864 5863 5861 5860 5858 5856 5855 5854 5853 5852 5851 5850 5850 5851 5852 5854 5855 5857 5858 5860 5862 5864 5866
5857 5858 5860 5862 5863 5865 5867 5869 5871 5872 5873 5874 5872 5872 5872 5869 5868 5867 5866 5864 5863 5862 5860 5859 5857 5856 5854 5853 5852 5851 5850 5849 5849 5849 5849 5850 5851 5852 5854 5855 5857 5859 5861 5863
5852 5854 5855 5857 5859 5860 5862 5865 5868 5871 5873 5872 5868 5868 5869 5866 5865 5864 5863 5862 5861 5859 5858 5856 5855 5854 5852 5851 5850 5848 5848 5847 5847 5847 5847 5848 5848 5850 5851 5853 5854 5856 5857 5859
5847 5849 5850 5851 5853 5855 5857 5859 5863 5865 5866 5867 5867 5866 5865 5863 5862 5861 5860 5859 5858 5857 5856 5854 5853 5852 5850 5849 5848 5847 5846 5845 5845 5845 5845 5845 5846 5847 5849 5850 5851 5852 5853 5854
5842 5844 5845 5846 5848 5850 5853 5855 5857 5860 5862 5864 5865 5864 5863 5860 5859 5859 5858 5857 5856 5855 5854 5852 5851 5850 5849 5847 5846 5845 5844 5843 5843 5843 5843 5843 5843 5844 5845 5846 5847 5849 5850 5851
5836 5839 5840 5842 5844 5846 5849 5851 5852 5855 5858 5861 5863 5864 5859 5858 5857 5856 5855 5854 5853 5852 5851 5850 5849 5848 5847 5846 5844 5843 5842 5841 5841 5841 5841 5841 5841 5841 5842 5843 5844 5845 5846 5847
5831 5834 5836 5838 5839 5841 5843 5846 5848 5852 5853 5855 5858 5861 5855 5855 5854 5853 5852 5851 5851 5850 5849 5848 5847 5846 5845 5844 5843 5842 5841 5840 5839 5839 5838 5838 5838 5838 5839 5839 5840 5842 5842 5843
5825 5828 5832 5833 5836 5837 5838 5841 5843 5846 5849 5851 5854 5857 5851 5851 5850 5850 5849 5848 5848 5847 5846 5845 5844 5843 5843 5842 5841 5840 5839 5838 5837 5836 5836 5835 5835 5835 5836 5837 5837 5838 5839 5840
5819 5822 5828 5832 5833 5832 5834 5836 5839 5842 5845 5847 5848 5850 5847 5847 5847 5846 5845 5845 5844 5844 5843 5842 5842 5841 5840 5840 5839 5838 5837 5836 5835 5834 5833 5832 5832 5832 5833 5834 5834 5835 5835 5836
5812 5816 5820 5823 5825 5827 5830 5832 5834 5837 5840 5843 5844 5844 5842 5842 5842 5842 5841 5841 5840 5840 5839 5839 5838 5838 5837 5837 5836 5836 5835 5833 5832 5831 5830 5830 5830 5830 5831 5831 5831 5832 5833 5833
5805 5809 5813 5816 5819 5821 5824 5826 5829 5831 5834 5836 5838 5838 5836 5837 5836 5836 5836 5836 5836 5835 5835 5835 5834 5834 5834 5834 5833 5833 5832 5830 5829 5828 5828 5828 5828 5827 5828 5828 5828 5829 5829 5829
5797 5802 5807 5810 5812 5815 5817 5820 5823 5825 5827 5830 5831 5831 5830 5831 5831 5831 5830 5830 5830 5830 5830 5830 5830 5830 5830 5829 5829 5829 5828 5827 5826 5826 5825 5825 5825 5825 5825 5824 5825 5825 5825 5825
5790 5794 5799 5803 5806 5808 5813 5813 5816 5819 5821 5822 5823 5824 5824 5824 5824 5824 5824 5824 5824 5824 5824 5824 5825 5825 5825 5824 5824 5824 5823 5823 5822 5822 5822 5821 5821 5821 5820 5820 5820 5821 5821 5821
5782 5787 5791 5795 5798 5801 5803 5806 5809 5812 5814 5815 5816 5817 5817 5817 5817 5818 5818 5818 5818 5818 5818 5819 5819 5819 5819 5819 5819 5819 5818 5818 5818 5818 5817 5817 5817 5816 5816 5816 5816 5816 5816 5816
5774 5778 5784 5787 5791 5795 5797 5798 5802 5805 5806 5808 5809 5810 5810 5811 5811 5812 5811 5811 5812 5812 5812 5812 5813 5813 5813 5813 5813 5813 5813 5813 5812 5812 5812 5812 5812 5812 5811 5811 5811 5811 5811 5811
5766 5770 5774 5778 5782 5786 5786 5789 5794 5798 5798 5800 5801 5802 5803 5803 5804 5805 5805 5805 5805 5805 5805 5806 5806 5806 5806 5807 5807 5807 5806 5807 5806 5806 5806 5806 5806 5806 5806 5805 5805 5805 5805 5805
5758 5762 5766 5770 5774 5778 5777 5781 5785 5787 5789 5791 5792 5794 5795 5796 5796 5797 5797 5798 5798 5798 5799 5799 5799 5799 5799 5800 5800 5799 5799 5799 5800 5800 5800 5800 5800 5800 5799 5799 5799 5799 5799 5798
5749 5753 5757 5761 5765 5766 5769 5772 5775 5778 5780 5782 5784 5785 5787 5787 5788 5789 5790 5791 5791 5791 5791 5792 5792 5792 5792 5792 5792 5793 5792 5792 5793 5793 5793 5793 5793 5793 5792 5792 5792 5792 5792 5791
5740 5744 5748 5752 5754 5757 5760 5763 5766 5769 5771 5773 5775 5777 5778 5779 5780 5781 5782 5783 5783 5784 5784 5784 5784 5784 5785 5785 5785 5785 5785 5785 5785 5786 5786 5786 5786 5785 5785 5785 5785 5785 5785 5784
5731 5736 5739 5743 5746 5749 5751 5754 5757 5760 5762 5764 5766 5768 5770 5771 5772 5773 5774 5775 5775 5776 5776 5776 5777 5777 5777 5777 5778 5778 5778 5778 5778 5778 5778 5778 5778 5778 5778 5778 5777 5777 5777 5777
5723 5727 5731 5734 5738 5741 5744 5746 5749 5752 5754 5756 5758 5760 5761 5763 5765 5766 5766 5767 5768 5768 5768 5769 5769 5769 5770 5770 5770 5771 5771 5770 5770 5771 5771 5771 5771 5771 5771 5771 5770 5770 5769 5769